Sant Hilari Sacalm





Hora UTC 08:30
Temperatura 1.6 ºC
Humitat 93.0 %
Pressió 997.9 hPa
Pluja 0.0 mm
Velocitat vent 0.0 km/h
Direcció vent WSW
Radiació solar 58.0 W/m²

Dades diàries 2019-11-15



Hora UTC (hivern +1h; estiu +2h)
Temperatura (ºC) Humitat (%) Pressió (hPa) Velocitat vent (km/h) Precipitació (mm) Radiació solar (W/m²)
Hora UTC Aire Humitat Pressió Vel. Dir. Vel. Max Dir. Intent. màx 5 min. Rad. Sol.
00:05 1.2 91.0 995.2 0.0 NW 0.0 0.0 0.0
00:10 1.0 91.0 995.4 0.0 NW 0.0 0.0 0.0
00:15 0.9 92.0 995.5 0.0 NW 0.0 0.0 0.0
00:20 0.9 92.0 995.5 0.0 NW 0.0 0.0 0.0
00:25 0.8 92.0 995.5 0.0 NW 0.0 0.0 0.0
00:30 0.7 92.0 995.6 0.0 NW 0.0 0.0 0.0
00:35 0.6 92.0 995.6 0.0 NW 0.0 0.0 0.0
00:40 0.6 93.0 995.7 0.0 NW 0.0 0.0 0.0
00:45 0.6 93.0 995.4 0.0 NW 0.0 0.0 0.0
00:50 0.6 93.0 995.4 0.0 NW 0.0 0.0 0.0
00:55 0.5 93.0 995.3 0.0 NW 0.0 0.0 0.0
01:00 0.3 93.0 995.4 0.0 NW 0.0 0.0 0.0
01:05 0.2 93.0 995.4 0.0 NW 0.0 0.0 0.0
01:10 0.2 93.0 995.5 0.0 N 0.0 0.0 0.0
01:15 0.3 93.0 995.7 0.0 NNE 0.0 0.0 0.0
01:20 0.4 93.0 995.7 0.0 NNE 0.0 0.0 0.0
01:25 0.4 93.0 995.6 0.0 WSW 0.0 0.0 0.0
01:30 0.4 93.0 995.6 0.0 WSW 0.0 0.0 0.0
01:35 0.4 93.0 995.6 0.0 WSW 0.0 0.0 0.0
01:40 0.4 93.0 995.8 0.0 WSW 0.0 0.0 0.0
01:45 0.5 93.0 995.9 0.0 WSW 0.0 0.0 0.0
01:50 0.5 93.0 995.8 0.0 WSW 0.0 0.0 0.0
01:55 0.6 93.0 996.0 0.0 WSW 0.0 0.0 0.0
02:00 0.6 93.0 995.9 0.0 WSW 0.0 0.0 0.0
02:05 0.4 93.0 995.8 0.0 WSW 0.0 0.0 0.0
02:10 0.3 93.0 995.9 0.0 WSW 0.0 0.0 0.0
02:15 0.2 93.0 995.9 0.0 WSW 0.0 0.0 0.0
02:20 0.2 93.0 996.0 0.0 WSW 0.0 0.0 0.0
02:25 0.2 93.0 995.9 0.0 WSW 0.0 0.0 0.0
02:30 0.3 93.0 995.9 0.0 WSW 0.0 0.0 0.0
02:35 0.4 93.0 995.8 0.0 WSW 0.0 0.0 0.0
02:40 0.4 93.0 995.7 0.0 WSW 0.0 0.0 0.0
02:45 0.4 93.0 995.8 0.0 WSW 0.0 0.0 0.0
02:50 0.3 93.0 995.8 0.0 WSW 0.0 0.0 0.0
02:55 0.3 93.0 995.8 0.0 WSW 0.0 0.0 0.0
03:00 0.3 93.0 996.0 0.0 WSW 0.0 0.0 0.0
03:05 0.3 93.0 996.1 0.0 WSW 0.0 0.0 0.0
03:10 0.4 93.0 996.1 0.0 WSW 0.0 0.0 0.0
03:15 0.4 93.0 996.2 0.0 WSW 0.0 0.0 0.0
03:20 0.4 93.0 996.1 0.0 WSW 0.0 0.0 0.0
03:25 0.5 93.0 996.0 0.0 WSW 0.0 0.0 0.0
03:30 0.4 93.0 996.0 0.0 WSW 0.0 0.0 0.0
03:35 0.3 93.0 996.1 0.0 WSW 0.0 0.0 0.0
03:40 0.4 93.0 996.0 0.0 WSW 0.0 0.0 0.0
03:45 0.3 93.0 996.1 0.0 WSW 0.0 0.0 0.0
03:50 0.3 93.0 996.1 0.0 WSW 0.0 0.0 0.0
03:55 0.3 93.0 996.0 0.0 WSW 0.0 0.0 0.0
04:00 0.3 93.0 996.1 0.0 WSW 0.0 0.0 0.0
04:05 0.3 93.0 996.1 0.0 WSW 0.0 0.0 0.0
04:10 0.3 93.0 996.1 0.0 WSW 0.0 0.0 0.0
04:15 0.3 93.0 996.1 0.0 WSW 0.0 0.0 0.0
04:20 0.3 93.0 996.1 0.0 WSW 0.0 0.0 0.0
04:25 0.2 93.0 996.1 0.0 WSW 0.0 0.0 0.0
04:30 0.2 93.0 996.1 0.0 WSW 0.0 0.0 0.0
04:35 0.2 93.0 996.1 0.0 WSW 0.0 0.0 0.0
04:40 0.3 93.0 996.3 0.0 WSW 0.0 0.0 0.0
04:45 0.3 93.0 996.2 0.0 WSW 0.0 0.0 0.0
04:50 0.3 93.0 996.3 0.0 WSW 0.0 0.0 0.0
04:55 0.3 93.0 996.2 0.0 WSW 0.0 0.0 0.0
05:00 0.3 93.0 996.3 0.0 WSW 0.0 0.0 0.0
05:05 0.3 93.0 996.4 0.0 WSW 0.0 0.0 0.0
05:10 0.3 93.0 996.3 0.0 WSW 0.0 0.0 0.0
05:15 0.3 93.0 996.3 0.0 WSW 0.0 0.0 0.0
05:20 0.2 93.0 996.3 0.0 WSW 0.0 0.0 0.0
05:25 0.2 93.0 996.5 0.0 WSW 0.0 0.0 0.0
05:30 0.1 93.0 996.5 0.0 WSW 0.0 0.0 0.0
05:35 0.1 93.0 996.4 0.0 WSW 0.0 0.0 0.0
05:40 0.1 93.0 996.6 0.0 WSW 0.0 0.0 0.0
05:45 -0.1 93.0 996.8 0.0 WSW 0.0 0.0 0.0
05:50 -0.1 93.0 996.8 0.0 WSW 0.0 0.0 0.0
05:55 -0.1 93.0 996.7 0.0 WSW 0.0 0.0 0.0
06:00 -0.1 93.0 996.6 0.0 WSW 0.0 0.0 0.0
06:05 -0.1 93.0 996.6 0.0 WSW 0.0 0.0 0.0
06:10 -0.1 93.0 996.5 0.0 WSW 0.0 0.0 0.0
06:15 -0.1 93.0 996.7 0.0 WSW 0.0 0.0 0.0
06:20 0.0 93.0 996.8 0.0 WSW 0.0 0.0 0.0
06:25 0.0 93.0 996.8 0.0 WSW 0.0 0.0 0.0
06:30 -0.1 93.0 996.6 0.0 WSW 0.0 0.0 0.0
06:35 -0.1 93.0 996.7 0.0 WSW 0.0 0.0 0.0
06:40 -0.2 93.0 996.7 0.0 WSW 0.0 0.0 0.0
06:45 -0.2 93.0 996.8 0.0 WSW 0.0 0.0 0.0
06:50 -0.2 93.0 996.9 0.0 WSW 0.0 0.0 7.0
06:55 -0.1 93.0 996.9 0.0 WSW 0.0 0.0 9.0
07:00 -0.1 93.0 996.9 0.0 WSW 0.0 0.0 12.0
07:05 -0.1 93.0 997.0 0.0 WSW 0.0 0.0 16.0
07:10 -0.1 93.0 997.2 0.0 WSW 0.0 0.0 18.0
07:15 -0.1 93.0 997.3 0.0 WSW 0.0 0.0 19.0
07:20 0.0 93.0 997.3 0.0 WSW 0.0 0.0 25.0
07:25 0.2 94.0 997.5 0.0 WSW 0.0 0.0 28.0
07:30 0.2 94.0 997.5 0.0 WSW 0.0 0.0 30.0
07:35 0.3 93.0 997.6 0.0 WSW 0.0 0.0 30.0
07:40 0.4 93.0 997.7 0.0 WSW 0.0 0.0 28.0
07:45 0.4 93.0 997.7 0.0 WSW 0.0 0.0 26.0
07:50 0.6 94.0 997.8 0.0 WSW 0.0 0.0 28.0
07:55 0.7 93.0 997.8 0.0 WSW 0.0 0.0 30.0
08:00 0.9 94.0 997.8 0.0 WSW 0.0 0.0 30.0
08:05 1.0 93.0 997.8 0.0 WSW 0.0 0.0 37.0
08:10 1.1 93.0 997.8 0.0 WSW 0.0 0.0 39.0
08:15 1.2 93.0 997.8 0.0 WSW 0.0 0.0 44.0
08:20 1.3 93.0 997.9 0.0 WSW 0.0 0.0 49.0
08:25 1.4 93.0 997.9 0.0 WSW 0.0 0.0 54.0
08:30 1.6 93.0 997.9 0.0 WSW 0.0 0.0 58.0
Màxima 2.2 94.0 997.9 0.0 WSW 0.0 0.0 58.0
Mínima -0.2 91.0 995.2
Total 0.0